Maxwell AFB, AL

6:25 PM CDT on July 26, 2017 (GMT -0500)
Maxwell Air Force Base

Weather History for KMXF - August, 2014

Change the Weather History Date:

Sunday, August 31, 2014

  Actual Average Record
Temperature  
Mean Temperature 84 °F -  
Max Temperature 95 °F 88 °F 96 °F (1998)
Min Temperature 72 °F 70 °F 68 °F (1996)
Cooling Degree Days 18    
Growing Degree Days 34 (Base 50)    
Moisture  
Dew Point 73 °F    
Average Humidity 77    
Maximum Humidity 100    
Minimum Humidity 44    
Precipitation  
Precipitation 0.00 in - - ()
Sea Level Pressure  
Sea Level Pressure 30.10 in    
Wind  
Wind Speed 3 mph (SE)    
Max Wind Speed 23 mph    
Max Gust Speed 28 mph    
Visibility 10 miles    
Events Rain    
Averages and records for this station are not official NWS values.
T = Trace of Precipitation, MM = Missing Value Source: NWS Daily Summary

Daily Weather History Graph

Daily Weather History Graph

Search for Another Location

Airport or City:

Trip Planner

Search our weather history database for the weather conditions in past years. The results will help you decide how hot, cold, wet, or windy it might be!

Date:

Astronomy

Aug. 31, 2014 Rise Set
Actual Time 6:19 AM CDT 7:11 PM CDT
Civil Twilight 5:54 AM CDT 7:36 PM CDT
Nautical Twilight 5:25 AM CDT 8:05 PM CDT
Astronomical Twilight 4:54 AM CDT 8:35 PM CDT
Moon 11:45 AM CDT (8/31) 10:47 PM CDT (8/31)
Length of Visible Light 13h 41m
Length of Day
12h 51m
Waxing Crescent, 32% of the Moon is Illuminated
Aug 31
Waxing Crescent
Sep 2
First Quarter
Sep 8
Full
Sep 15
Last Quarter
Sep 24
New

Hourly Weather History & Observations

Time (CDT) Temp. Heat Index Dew Point Humidity Pressure Visibility Wind Dir Wind Speed Gust Speed Precip Events Conditions
12:58 AM 73.0 °F - 73.0 °F 100% 30.13 in 10.0 mi Calm Calm - N/A   Clear
1:58 AM 73.8 °F - 73.8 °F 100% 30.12 in 10.0 mi Calm Calm - N/A   Partly Cloudy
2:58 AM 72.9 °F - 72.9 °F 100% 30.12 in 10.0 mi Calm Calm - N/A   Partly Cloudy
3:58 AM 72.3 °F - 72.3 °F 100% 30.12 in 9.0 mi NNE 1.2 mph - N/A   Clear
4:18 AM 73.4 °F - 73.4 °F 100% 30.11 in 10.0 mi Calm Calm - N/A   Mostly Cloudy
4:33 AM 73.4 °F - 73.4 °F 100% 30.11 in 10.0 mi North 1.2 mph - N/A   Scattered Clouds
4:58 AM 72.5 °F - 72.5 °F 100% 30.11 in 9.0 mi NNW 3.5 mph - N/A   Clear
5:38 AM 73.4 °F - 73.4 °F 100% 30.12 in 10.0 mi NE 2.3 mph - N/A   Mostly Cloudy
5:58 AM 73.0 °F - 73.0 °F 100% 30.15 in 10.0 mi East 3.5 mph - N/A   Mostly Cloudy
6:43 AM 73.4 °F - 73.4 °F 100% 30.14 in 10.0 mi NNE 2.3 mph - N/A   Scattered Clouds
6:58 AM 73.4 °F - 73.4 °F 100% 30.14 in 10.0 mi NNE 3.5 mph - N/A   Clear
7:58 AM 76.3 °F - 75.9 °F 99% 30.15 in 10.0 mi ESE 2.3 mph - N/A   Clear
8:13 AM 78.8 °F - 75.2 °F 89% 30.14 in 10.0 mi SE 4.6 mph - N/A   Mostly Cloudy
8:58 AM 81.5 °F 87.6 °F 74.7 °F 80% 30.15 in 10.0 mi SSE 4.6 mph - N/A   Mostly Cloudy
9:23 AM 84.2 °F 92.3 °F 75.2 °F 74% 30.14 in 10.0 mi SSE 8.1 mph - N/A   Scattered Clouds
9:58 AM 85.3 °F 94.2 °F 75.4 °F 72% 30.14 in 10.0 mi SE 5.8 mph - N/A   Partly Cloudy
10:58 AM 86.4 °F 95.5 °F 75.0 °F 69% 30.14 in 10.0 mi South 4.6 mph - N/A   Partly Cloudy
11:58 AM 90.3 °F 99.9 °F 74.1 °F 59% 30.14 in 10.0 mi SSE 5.8 mph - N/A   Scattered Clouds
12:58 PM 91.8 °F 100.3 °F 73.0 °F 54% 30.13 in 10.0 mi Variable 2.3 mph - N/A   Scattered Clouds
1:58 PM 92.7 °F 99.4 °F 71.2 °F 49% 30.09 in 10.0 mi WNW 3.5 mph - N/A   Scattered Clouds
2:58 PM 93.0 °F 99.5 °F 70.9 °F 48% 30.08 in 10.0 mi SSE 3.5 mph - N/A   Clear
3:58 PM 95.2 °F 101.7 °F 69.8 °F 44% 30.06 in 10.0 mi South 2.3 mph - N/A   Clear
4:58 PM 94.6 °F 101.1 °F 70.2 °F 45% 30.06 in 10.0 mi SSE 18.4 mph 26.5 mph N/A   Mostly Cloudy
4:59 PM 93.2 °F 102.4 °F 73.4 °F 52% 30.05 in 9.0 mi SE 23.0 mph 27.6 mph N/A Rain Light Rain
5:15 PM 87.8 °F 92.6 °F 69.8 °F 55% 30.06 in 10.0 mi ESE 13.8 mph - N/A   Overcast
5:17 PM 87.8 °F 92.6 °F 69.8 °F 55% 30.06 in 10.0 mi SE 15.0 mph - N/A Rain Light Rain
5:30 PM 86.0 °F 93.4 °F 73.4 °F 66% 30.06 in 10.0 mi ESE 10.4 mph - N/A   Mostly Cloudy
5:41 PM 87.8 °F 95.6 °F 73.4 °F 62% 30.05 in 10.0 mi East 4.6 mph - N/A Rain Light Rain
5:50 PM 89.6 °F 96.2 °F 71.6 °F 55% 30.05 in 10.0 mi ENE 2.3 mph - N/A   Mostly Cloudy
5:58 PM 90.9 °F 97.8 °F 71.6 °F 53% 30.06 in 10.0 mi ENE 1.2 mph - 0.00 in   Scattered Clouds
6:58 PM 82.8 °F 87.4 °F 71.4 °F 68% 30.06 in 10.0 mi Variable 3.5 mph - N/A   Scattered Clouds
7:58 PM 81.1 °F 85.2 °F 71.4 °F 72% 30.08 in 10.0 mi SW 4.6 mph - N/A   Mostly Cloudy
8:58 PM 79.7 °F - 71.4 °F 76% 30.09 in 10.0 mi WNW 3.5 mph - N/A   Mostly Cloudy
9:58 PM 77.4 °F - 72.5 °F 85% 30.09 in 10.0 mi SW 1.2 mph - N/A   Scattered Clouds
10:58 PM 76.1 °F - 72.3 °F 88% 30.09 in 10.0 mi South 4.6 mph - N/A   Mostly Cloudy
11:58 PM 75.7 °F - 71.4 °F 86% 30.09 in 10.0 mi South 2.3 mph - N/A   Clear